This is the latest recevied weather packets stored in our database for station/object DL5TW-13. If no packets are shown the sender has not sent any weather packets the latest 10 day(s).
| Time | Temp. | Humidity | Pressure | Rain* | Wind** | Luminosity | Snow |
|---|---|---|---|---|---|---|---|
| 1777444282 | 11.67° C | 50% | 1020.9 hPa | 0 mm | - | - | - |
| 1777443981 | 10.56° C | 51% | 1020.8 hPa | 0 mm | - | - | - |
| 1777443681 | 10.56° C | 51% | 1020.8 hPa | 0 mm | - | - | - |
| 1777443381 | 10.56° C | 53% | 1020.8 hPa | 0 mm | - | - | - |
| 1777443081 | 10° C | 53% | 1020.6 hPa | 0 mm | - | - | - |
| 1777442780 | 10° C | 54% | 1020.4 hPa | 0 mm | - | - | - |
| 1777442480 | 8.89° C | 56% | 1020.5 hPa | 0 mm | - | - | - |
| 1777442180 | 8.33° C | 58% | 1020.4 hPa | 0 mm | - | - | - |
| 1777441879 | 7.78° C | 59% | 1020.5 hPa | 0 mm | - | - | - |
| 1777441579 | 7.22° C | 61% | 1020.4 hPa | 0 mm | - | - | - |
| 1777441279 | 6.11° C | 64% | 1020.3 hPa | 0 mm | - | - | - |
| 1777440978 | 5.56° C | 66% | 1020.4 hPa | 0 mm | - | - | - |
| 1777440678 | 5° C | 67% | 1020.3 hPa | 0 mm | - | - | - |
| 1777440378 | 4.44° C | 68% | 1020.4 hPa | 0 mm | - | - | - |
| 1777440078 | 3.89° C | 70% | 1020.5 hPa | 0 mm | - | - | - |
| 1777439777 | 2.78° C | 71% | 1020.4 hPa | 0 mm | - | - | - |
| 1777439477 | 2.78° C | 73% | 1020.3 hPa | 0 mm | - | - | - |
| 1777439177 | 2.22° C | 74% | 1020.3 hPa | 0 mm | - | - | - |
| 1777438877 | 1.67° C | 75% | 1020.1 hPa | 0 mm | - | - | - |
| 1777438576 | 1.11° C | 75% | 1020.3 hPa | 0 mm | - | - | - |
| 1777438276 | 0.56° C | 76% | 1020.1 hPa | 0 mm | - | - | - |
| 1777437976 | 0.56° C | 76% | 1020.3 hPa | 0 mm | - | - | - |
| 1777437675 | 0.56° C | 76% | 1020.1 hPa | 0 mm | - | - | - |
| 1777437375 | 0° C | 77% | 1020 hPa | 0 mm | - | - | - |
| 1777437075 | -0.56° C | 78% | 1020.1 hPa | 0 mm | - | - | - |
* Rain latest hour (hover to see other rain measurements)
** Current wind speed in m/s (hover to see current wind gust speed)